Theta_e
321 321 319 319 317 315 315 315 315 314 312 311 312 310 309 308 308 306 303 300 295 295 295 295 293 293 294 293 293 292 293 294 294 295 295 295 297 304 314 318 321 321 322 325 325 325 326 324 324 324 324 323 322 322 323 323 321 320 320 321 320 319 319 318 317 318 318 319 319 319 319 320 320 321 321 321 322 323 325 326 327 327 328 328 329
320 318 318 317 315 314 314 315 314 313 313 313 311 311 309 307 306 306 304 300 296 296 295 294 294 294 293 294 293 294 294 294 295 295 295 295 295 299 312 315 320 321 321 323 326 325 326 324 325 324 324 323 322 322 323 322 321 320 320 320 320 318 318 317 317 316 317 317 319 318 318 318 319 320 320 320 320 320 320 322 322 322 323 325 326
320 318 316 316 315 314 314 313 313 313 313 313 310 311 309 308 307 306 305 300 296 295 294 294 294 294 294 293 294 293 293 293 295 296 296 296 296 297 303 313 317 321 322 321 324 324 324 325 325 324 323 323 322 322 322 323 321 320 320 320 320 318 317 317 316 316 316 317 317 318 318 317 318 318 319 319 319 319 319 320 320 320 320 322 323
320 318 317 315 314 314 313 313 314 312 312 312 310 309 308 307 304 304 302 299 296 294 293 293 293 294 292 292 291 293 292 292 295 296 295 296 295 296 297 304 314 317 320 321 322 323 323 324 325 324 324 323 323 321 321 323 322 322 319 320 321 318 317 316 316 316 316 317 317 317 317 317 317 317 317 317 318 318 318 318 319 319 319 319 320
318 318 316 316 314 314 312 313 313 312 312 310 309 307 306 302 302 299 298 295 294 294 293 291 293 293 293 292 292 292 292 292 293 295 295 296 297 296 296 299 301 311 314 318 322 322 322 321 322 324 324 323 323 322 322 322 323 322 320 319 320 319 317 316 316 316 316 316 316 317 316 316 317 317 317 317 316 316 317 317 318 318 318 318 318
318 317 317 316 314 314 313 312 311 311 311 309 309 306 305 301 301 297 298 295 294 293 292 292 291 291 292 290 290 292 291 291 292 294 295 295 296 295 296 296 297 299 301 312 316 321 321 321 320 321 322 322 322 323 322 322 323 321 319 319 319 319 318 317 316 316 316 316 316 316 315 316 316 316 316 316 316 316 316 316 316 317 317 317 317
317 318 316 315 314 313 312 313 311 310 311 309 309 304 303 302 298 297 293 293 292 292 292 292 291 292 292 291 291 291 290 292 291 291 292 293 294 295 295 295 295 297 298 296 305 311 319 321 321 321 320 320 321 322 322 322 320 319 319 319 319 318 318 317 317 316 316 315 315 315 315 315 315 315 315 315 315 315 315 315 315 316 315 316 316
316 316 316 314 314 313 313 311 310 310 310 308 307 304 301 300 297 297 294 292 291 291 291 290 290 292 290 291 290 291 290 290 291 291 292 291 296 296 296 295 294 294 299 296 298 302 312 317 319 320 320 319 319 320 321 321 320 319 319 319 319 318 316 317 317 316 315 315 314 314 315 315 315 315 314 314 314 314 314 314 314 314 314 314 315
315 315 316 314 313 313 311 310 309 309 308 306 306 304 300 299 295 294 295 293 290 289 289 289 290 291 290 289 290 291 291 291 291 292 291 291 293 295 295 295 294 301 294 294 296 296 304 312 315 316 316 318 318 318 320 321 320 319 319 319 319 319 317 316 316 315 315 314 313 313 314 314 314 314 314 314 314 314 313 313 313 313 313 313 314
314 314 314 314 314 313 310 309 308 308 307 304 305 300 299 299 296 293 293 292 290 290 290 289 290 290 289 288 289 289 289 290 291 293 291 291 291 293 295 296 295 295 294 293 293 294 296 304 309 309 309 314 318 319 320 319 320 319 319 319 319 318 317 316 316 315 314 314 313 313 313 313 313 313 313 313 313 312 312 312 312 311 312 313 314
313 313 314 312 312 311 309 307 307 306 305 303 301 297 296 296 297 294 291 291 292 290 290 289 289 289 288 288 287 287 288 289 291 290 290 291 292 293 291 293 294 293 294 293 293 292 293 294 294 293 294 308 315 318 319 319 318 319 319 319 319 318 317 316 316 315 314 313 313 313 313 313 313 312 312 312 312 312 311 311 312 312 313 313 313
313 313 313 311 310 310 310 308 306 305 303 301 299 296 296 295 295 294 292 290 289 289 289 289 287 287 287 287 287 287 288 288 288 289 291 290 291 291 290 290 291 291 292 292 292 292 292 292 291 291 291 299 309 311 314 315 315 319 318 318 318 318 317 316 316 315 314 313 314 313 313 313 312 312 312 311 311 311 311 311 311 312 312 313 312
311 312 312 310 311 309 310 308 306 305 305 304 302 299 298 297 296 293 292 290 288 287 288 289 288 287 285 285 287 286 288 289 287 289 289 289 289 291 290 290 287 289 291 290 290 290 291 291 291 290 291 290 294 304 307 310 310 313 318 319 318 318 317 315 315 314 314 313 314 313 313 313 312 311 311 310 311 311 311 311 312 311 311 312 312
309 310 310 310 308 307 307 307 305 305 305 304 301 298 296 295 294 291 290 291 290 288 290 290 286 285 285 285 285 286 286 287 287 288 288 288 289 290 290 290 289 288 287 288 289 289 289 290 290 289 289 289 290 291 293 297 300 308 313 318 319 319 317 316 315 315 314 313 313 313 313 312 312 311 310 310 311 311 311 312 312 311 311 312 312
308 307 308 307 307 306 306 305 304 304 303 301 299 298 296 295 294 295 290 288 288 288 289 291 287 283 282 283 282 284 286 286 287 288 288 287 288 289 290 289 290 288 288 288 288 287 288 288 289 288 288 287 288 288 290 295 294 299 305 309 313 318 322 318 316 315 315 313 313 313 312 312 312 311 311 311 311 311 311 312 311 311 311 311 311
305 305 306 306 305 304 302 302 303 303 303 302 300 299 297 296 294 294 294 290 287 288 290 290 286 287 284 285 280 281 280 283 286 285 286 288 288 289 289 290 289 288 287 287 287 287 288 287 288 288 288 287 287 286 288 289 294 298 298 300 303 309 316 320 320 316 315 314 313 312 312 312 312 311 311 310 311 311 311 311 311 311 311 311 311
303 303 303 302 302 302 301 301 302 301 300 300 300 300 299 297 296 294 293 295 291 288 289 290 288 290 288 281 280 281 281 279 281 283 282 285 287 287 288 289 288 288 288 287 287 287 287 287 287 287 287 287 286 286 287 289 291 293 294 295 297 303 308 316 320 318 316 315 314 312 311 311 311 311 310 310 310 310 310 310 310 310 310 310 310
298 299 298 298 299 299 299 299 299 298 299 299 299 299 298 296 295 295 294 294 296 291 289 290 290 289 287 284 284 282 282 280 283 282 281 283 285 286 287 288 287 287 287 288 287 287 287 288 287 287 287 287 286 286 287 288 290 290 291 293 301 304 306 310 316 319 318 316 315 313 312 311 311 311 311 310 310 310 310 310 310 310 310 310 310
299 297 297 296 295 295 296 297 297 298 298 299 299 299 299 298 297 295 295 295 293 292 291 291 290 289 288 288 285 284 281 283 282 281 282 283 282 284 286 285 285 286 287 288 287 287 287 287 287 287 287 287 287 287 287 288 292 293 297 299 304 306 307 309 310 315 318 317 316 314 313 312 311 311 311 310 309 310 309 309 309 309 309 309 310
296 297 297 297 296 297 294 294 295 296 297 298 298 299 299 298 297 296 295 294 293 292 292 291 290 290 291 289 288 285 283 284 281 284 281 281 282 282 282 284 284 285 287 287 287 287 287 286 287 286 287 287 287 287 287 288 288 290 293 299 303 306 308 309 310 310 312 315 315 315 313 312 312 312 311 310 309 309 309 309 309 309 309 309 310
293 293 294 294 294 295 295 294 293 293 292 295 296 297 297 296 296 295 294 294 293 293 292 291 290 291 289 289 288 288 286 285 284 283 283 281 281 280 282 283 283 284 285 287 287 287 287 287 287 287 287 287 287 287 287 288 288 289 292 298 302 306 308 309 309 310 312 313 313 313 313 313 312 312 311 311 310 309 309 309 309 309 309 309 309
291 292 292 292 292 293 294 294 293 292 291 291 290 292 294 295 295 295 295 294 294 293 292 292 292 292 291 291 289 288 286 285 284 285 284 283 285 282 280 282 282 285 287 286 287 287 286 286 286 286 287 287 287 287 286 287 288 289 291 297 300 303 306 308 309 310 311 311 312 311 311 312 312 312 312 311 310 309 309 309 309 309 309 309 309
290 290 291 291 291 291 292 292 293 292 291 290 290 290 291 291 293 293 294 294 294 293 292 292 292 291 291 290 290 289 289 286 285 285 286 285 283 284 280 282 284 284 283 286 287 286 286 285 285 286 287 287 287 286 286 287 290 291 293 296 299 301 305 308 309 308 309 310 310 310 310 309 310 311 312 311 310 309 310 309 309 309 309 309 309
289 289 289 290 290 290 290 291 292 292 293 292 292 290 291 289 289 289 291 292 292 292 293 292 291 291 290 291 290 291 290 288 287 287 286 286 286 286 284 280 282 282 283 280 283 286 285 285 286 286 287 286 286 286 287 287 289 292 292 294 298 301 305 308 310 308 308 308 309 309 309 309 309 309 310 311 310 310 310 309 309 309 309 309 309
287 287 288 288 288 288 289 289 290 291 291 291 292 291 290 290 289 289 288 288 289 291 291 291 292 291 291 291 291 290 290 290 290 288 287 287 286 285 284 280 284 281 281 282 283 282 285 285 286 286 286 286 287 286 286 286 287 291 293 292 297 299 301 305 308 307 306 306 307 308 308 308 307 308 308 309 310 310 310 309 308 309 309 309 309
285 286 287 287 288 288 288 288 289 289 289 290 290 290 290 290 290 289 289 289 288 288 289 290 290 291 291 290 289 290 290 290 289 289 288 287 286 285 286 283 280 283 280 280 280 283 282 284 286 286 285 285 286 286 286 286 287 291 293 291 293 298 300 303 306 307 306 306 306 306 305 305 306 306 306 308 309 309 309 310 309 309 309 309 309
285 285 286 286 286 287 287 287 288 288 288 288 289 289 289 289 289 289 288 288 287 286 286 286 287 287 288 288 288 288 289 289 289 289 289 289 289 287 286 285 285 282 282 281 280 281 283 281 285 285 285 286 286 286 286 286 288 290 291 291 290 294 299 302 305 307 306 305 304 304 303 303 303 304 304 305 308 308 308 309 309 309 310 309 309
284 285 285 285 285 285 286 286 287 287 287 287 287 287 287 287 287 287 288 289 287 286 286 285 285 285 285 286 285 285 286 286 287 288 289 289 289 289 287 286 284 283 283 282 282 282 282 283 282 284 285 285 286 286 287 288 286 291 291 290 289 291 297 301 303 305 305 304 304 303 302 302 302 302 303 303 304 305 305 306 307 307 307 307 306
284 285 284 284 284 285 285 285 286 286 286 286 286 286 286 286 286 286 287 288 286 286 286 285 285 285 285 284 285 285 285 284 284 284 285 286 287 288 288 288 287 284 283 283 284 281 281 283 283 283 285 286 286 286 286 286 287 288 288 289 289 289 293 299 301 302 304 305 303 302 301 301 301 301 301 302 302 302 303 304 305 305 305 305 305
284 284 284 284 284 284 283 283 284 284 285 285 285 286 286 286 286 286 286 286 286 286 286 286 286 285 285 284 284 284 284 284 284 283 283 284 284 285 286 287 288 286 285 283 283 283 281 281 284 284 282 284 286 286 286 286 289 288 287 288 289 289 293 296 299 301 303 305 303 302 301 301 300 300 300 300 300 301 302 303 303 304 304 305 303
283 283 283 283 283 283 282 283 283 283 283 284 284 284 284 284 285 285 286 286 286 286 287 286 287 286 285 285 285 284 284 284 284 283 283 283 283 282 283 284 284 286 286 285 282 284 284 284 283 284 283 283 285 285 285 286 287 288 287 287 288 290 291 293 296 299 301 302 302 301 301 301 300 299 299 299 300 300 301 302 302 303 303 304 303
283 283 282 282 282 282 282 281 281 282 282 282 283 283 283 283 283 284 284 285 285 285 285 286 286 286 285 285 285 285 285 284 284 284 283 283 283 283 283 282 283 283 284 284 283 283 282 284 283 284 285 283 283 284 284 285 286 289 286 287 287 289 289 288 293 297 298 299 300 302 301 300 300 299 298 299 299 300 300 301 302 302 302 303 303
282 281 281 281 282 282 282 282 281 281 280 280 281 281 281 282 282 282 283 283 283 284 284 285 285 285 285 285 285 285 285 284 285 284 284 284 283 283 283 282 282 282 282 282 282 283 283 282 282 283 282 282 282 283 283 284 283 284 287 286 286 286 286 287 288 292 296 298 299 300 300 300 300 299 298 298 298 298 299 300 300 300 301 301 301
280 280 280 281 281 281 281 281 281 281 281 280 280 280 280 280 280 282 282 281 282 282 283 283 284 285 284 284 285 285 285 285 285 284 285 284 284 283 282 282 282 283 282 282 282 282 282 281 281 280 280 282 283 282 283 283 283 283 284 285 285 285 286 286 286 287 293 296 298 299 300 300 300 300 299 297 298 298 299 299 299 299 300 300 300
279 280 280 280 280 280 280 280 280 280 280 280 280 280 280 279 279 280 280 280 280 280 281 281 282 283 283 283 283 284 285 284 285 285 285 284 284 284 284 283 282 283 282 282 283 282 282 283 282 282 280 280 282 282 282 284 284 284 283 284 285 285 285 285 285 285 290 295 297 299 299 299 299 299 299 298 297 297 297 298 298 298 298 298 299
279 280 280 280 280 280 280 280 280 280 280 279 279 279 279 280 280 280 280 280 280 279 280 280 281 281 282 282 282 283 283 283 284 284 284 284 284 284 284 284 283 283 282 282 282 282 283 282 281 281 281 280 281 281 282 283 283 282 282 283 284 284 284 284 284 284 287 292 295 297 297 298 299 298 298 298 297 297 297 297 298 298 298 297 297
279 279 279 279 279 279 280 279 280 280 280 280 280 279 279 279 279 279 280 279 279 279 280 280 281 280 280 281 281 281 282 282 282 283 283 283 284 284 284 284 284 284 283 283 282 282 281 281 282 280 281 280 281 280 281 281 281 281 281 282 283 283 282 282 283 284 286 289 292 294 295 297 298 297 297 298 298 297 297 297 297 297 297 297 296
278 278 278 278 279 279 279 279 279 279 279 280 280 280 280 280 279 279 279 279 279 279 279 280 280 280 280 280 281 281 280 281 282 282 282 282 283 283 283 284 284 284 283 282 282 281 281 281 281 281 279 279 280 280 280 281 282 281 280 281 280 281 281 281 281 282 283 284 285 288 292 294 296 297 297 297 298 297 297 297 297 297 297 296 296
276 276 277 277 277 278 278 278 279 279 279 279 279 279 279 279 279 279 279 279 279 279 279 279 280 280 280 280 280 280 280 280 281 281 282 282 283 282 283 283 284 283 283 283 283 282 281 281 281 281 281 280 280 280 280 281 282 282 281 280 279 280 280 281 281 282 282 283 285 288 289 290 292 293 295 296 297 297 297 296 297 297 296 295 295
276 276 277 277 277 277 277 277 277 278 278 278 278 278 278 278 278 278 278 278 278 279 279 279 279 280 280 280 280 280 280 281 281 281 281 281 282 282 283 283 283 283 282 283 283 282 282 282 281 281 279 279 278 279 279 279 279 280 281 281 280 280 280 281 282 282 282 281 281 282 287 290 291 292 294 295 295 296 296 296 296 295 294 295 295
278 277 277 277 276 276 277 277 277 277 277 277 278 278 277 278 278 278 278 279 279 279 279 279 280 280 280 280 280 280 281 283 284 284 284 285 282 281 282 282 282 282 282 283 283 282 282 282 282 282 280 278 278 279 278 278 278 280 281 281 281 282 281 281 281 282 282 281 281 280 281 283 285 286 287 288 290 293 293 294 294 293 294 295 295
276 277 277 277 276 276 276 276 276 277 277 277 279 281 281 280 279 280 280 279 279 279 279 279 279 280 280 280 280 283 283 284 284 285 286 287 287 285 283 282 282 281 281 281 282 282 282 281 282 282 281 280 279 279 279 280 280 280 280 280 280 281 280 280 281 281 282 281 279 279 280 282 283 284 285 285 287 289 289 291 291 292 293 295 295
275 275 275 275 275 275 275 275 275 275 276 276 280 281 282 282 281 279 279 279 279 279 279 279 279 279 279 280 280 281 282 282 283 285 286 287 287 287 288 287 286 283 281 281 281 281 281 281 282 282 282 281 282 280 280 280 280 280 281 280 280 280 279 278 278 280 281 281 279 279 279 281 282 282 283 284 285 286 287 288 292 293 293 295 295
272 273 272 273 273 273 274 274 274 274 274 278 280 280 281 282 282 279 278 278 278 278 278 278 279 279 279 279 280 280 280 280 280 280 282 285 286 286 287 287 288 288 288 285 282 281 281 281 281 281 282 282 282 282 280 280 279 280 281 281 280 280 280 279 280 280 280 282 279 279 279 281 281 281 281 283 284 284 285 288 292 294 294 294 295
271 270 271 271 271 271 271 271 271 272 273 276 278 279 280 281 281 280 278 277 277 277 277 277 278 278 278 278 279 279 280 282 282 281 280 280 283 285 286 286 287 288 288 289 289 286 284 282 281 281 282 283 282 283 283 281 282 281 281 280 280 280 281 280 280 281 279 281 280 279 278 280 280 279 279 282 282 283 284 289 291 293 294 294 294
269 268 268 269 269 269 269 269 269 270 270 274 276 278 279 279 280 279 276 276 276 276 276 276 276 277 277 277 277 278 279 279 280 280 279 280 280 280 280 281 281 283 286 287 288 288 287 285 283 282 283 284 283 284 284 283 282 281 281 280 281 281 280 281 282 282 280 281 279 279 278 279 279 279 278 280 282 282 283 286 290 292 293 294 294
266 265 266 266 266 267 267 267 267 268 269 273 275 276 277 278 278 278 275 275 274 274 275 275 275 276 276 276 276 276 277 278 279 280 279 279 279 279 279 279 280 280 281 281 282 283 284 285 285 285 285 285 285 285 285 283 283 283 283 282 283 282 282 283 282 282 281 280 281 280 278 281 280 278 278 279 280 281 281 285 288 291 293 293 294
264 264 264 265 264 265 265 265 265 265 266 271 273 274 275 276 277 274 274 274 273 273 274 274 275 275 275 275 275 275 275 276 278 280 281 280 279 279 278 278 279 280 280 283 285 286 284 284 284 285 285 286 288 286 286 284 282 283 284 284 283 282 281 280 279 281 281 280 280 280 279 280 279 279 278 279 280 279 280 280 286 289 291 292 293
262 262 262 262 263 262 262 263 263 263 263 267 271 272 273 274 273 270 271 271 272 272 272 273 273 273 274 274 274 274 274 274 278 280 281 281 278 278 278 278 279 279 279 281 284 286 287 288 288 288 289 289 290 290 290 291 287 284 282 281 280 281 279 278 278 279 280 280 279 280 280 279 278 278 278 278 279 279 279 279 280 286 289 291 292
260 261 261 261 261 261 261 261 262 262 262 266 270 271 272 272 272 269 269 269 270 270 271 272 273 273 273 275 275 273 273 273 277 279 280 279 277 278 278 278 278 278 279 280 281 282 286 287 288 288 288 289 289 290 291 291 291 289 282 280 281 281 279 279 278 279 280 280 279 281 279 279 280 278 277 276 277 278 279 279 279 281 286 288 291
260 260 260 260 260 260 261 261 263 262 262 264 268 270 271 272 270 269 269 269 268 269 269 270 272 272 272 274 275 274 274 275 278 279 280 278 276 277 278 278 277 277 278 280 280 280 280 280 281 283 284 286 286 286 286 289 290 289 286 283 283 281 279 279 279 279 278 279 280 281 278 278 279 277 277 274 273 275 278 278 279 279 281 283 286
Wind_Speed
7 7 6 7 6 6 6 6 6 6 5 5 6 6 5 6 6 6 6 5 4 4 4 4 4 3 5 4 4 4 4 4 4 3 3 2 1 1 1 2 3 4 4 7 8 9 9 8 9 8 9 8 7 7 8 7 6 5 3 6 5 4 4 3 2 2 2 3 3 3 3 4 4 4 4 3 2 2 4 4 7 7 6 7 8
7 6 7 7 6 6 6 6 7 6 6 7 5 6 6 5 5 6 6 5 5 5 4 5 5 4 5 6 4 5 5 5 4 5 4 3 2 1 2 2 3 3 5 6 8 9 8 10 9 8 8 7 8 8 9 9 7 6 6 5 5 5 4 3 3 4 4 3 5 4 3 2 3 4 4 4 3 2 1 1 1 4 3 6 7
7 7 6 7 6 7 7 6 6 6 6 6 6 6 6 7 7 7 6 6 6 4 5 5 5 5 4 5 6 4 4 4 4 4 4 4 3 2 1 2 2 0 2 6 8 9 9 9 10 8 8 8 9 9 9 9 9 8 7 7 7 5 4 4 4 4 5 6 4 4 4 3 4 3 3 3 3 3 4 2 1 1 2 3 5
8 7 8 7 7 7 6 6 7 6 6 6 6 5 6 5 5 5 5 4 5 4 4 4 5 5 4 5 4 5 5 4 5 4 4 4 4 3 2 1 1 1 2 3 7 7 8 8 10 10 10 10 9 8 10 10 9 10 4 8 9 5 6 5 6 6 6 6 6 5 4 4 4 4 4 4 4 4 4 4 3 3 2 1 1
7 8 8 7 7 7 7 7 6 6 5 5 6 5 5 5 4 3 4 4 4 5 3 4 5 5 4 4 5 4 4 4 5 4 4 4 4 3 2 1 0 2 3 3 1 4 5 4 6 11 11 10 10 10 12 10 12 10 8 9 8 8 5 6 6 6 6 6 6 6 6 6 5 5 5 4 4 4 4 4 4 4 4 3 2
7 7 7 7 7 8 8 7 6 6 6 6 6 5 5 5 5 5 5 6 6 6 6 6 6 4 5 4 4 5 4 4 5 5 4 4 3 3 2 1 0 0 1 4 4 1 3 3 1 5 9 9 10 11 11 8 11 10 8 9 8 8 9 8 7 6 7 7 6 6 6 7 6 6 6 5 4 4 4 5 4 4 4 3 4
7 8 7 7 7 7 7 7 7 6 7 6 7 6 6 6 6 6 4 4 5 6 6 6 5 6 6 5 6 4 3 5 3 4 4 4 3 3 3 2 1 0 0 1 4 5 3 2 3 2 4 7 8 9 10 11 8 6 8 9 10 8 8 8 8 8 7 7 7 7 7 7 7 6 6 5 4 4 4 4 3 3 2 3 2
6 6 7 7 7 8 8 6 7 6 6 6 6 7 6 6 5 6 6 5 4 6 4 5 4 6 4 5 6 4 5 4 5 4 4 4 5 4 4 3 3 2 1 0 0 2 4 3 2 2 1 1 5 9 9 10 9 9 10 9 9 8 4 8 7 7 7 6 6 7 8 8 8 7 7 6 6 4 4 3 3 3 3 3 3
7 7 7 7 6 6 6 7 6 7 7 6 7 6 7 7 5 5 6 7 6 5 4 4 6 6 5 5 5 5 6 6 6 6 4 5 5 5 4 4 4 4 3 2 1 0 2 3 4 4 4 3 2 5 9 10 10 10 9 11 11 12 10 8 8 6 7 6 7 8 8 8 8 8 7 7 6 6 5 4 4 4 4 5 5
6 6 6 7 7 7 6 6 6 6 6 6 7 5 5 7 7 6 7 6 7 7 7 4 3 4 4 4 4 4 5 5 5 4 6 6 5 7 7 6 5 5 4 4 3 1 1 1 2 3 4 4 2 2 3 6 10 11 10 10 10 9 9 10 8 9 9 8 8 9 9 9 9 9 8 7 7 7 6 6 6 6 6 7 6
5 5 6 6 5 5 6 6 6 6 6 6 5 5 5 5 7 7 4 6 7 7 6 4 2 2 3 4 2 3 3 4 5 4 4 5 6 6 4 6 6 5 5 4 4 4 3 2 1 1 1 4 4 3 3 2 4 9 11 12 12 11 11 10 10 9 8 10 10 10 9 9 9 8 8 8 7 7 7 7 8 8 7 6 6
5 5 5 5 5 5 6 5 6 6 6 6 5 6 8 7 7 8 7 4 2 4 4 5 1 0 2 3 2 3 4 4 4 5 5 6 6 3 5 5 6 5 5 5 5 4 4 4 3 5 3 3 4 4 4 4 5 6 9 12 12 12 12 11 11 10 10 11 11 11 10 10 9 10 9 9 9 9 9 9 9 8 7 7 7
3 5 5 5 5 5 4 4 4 5 6 8 9 10 9 9 8 5 8 6 3 3 4 6 5 1 2 3 4 2 2 2 5 6 6 5 3 5 5 4 4 5 6 5 5 4 5 5 5 5 5 4 4 3 4 4 5 7 7 9 11 14 14 13 13 12 12 12 12 11 11 11 10 11 11 10 10 10 10 10 9 8 9 8 7
2 1 0 2 3 3 3 5 5 6 7 4 4 4 4 4 4 4 3 7 6 6 6 7 2 6 3 3 4 5 4 4 5 6 6 4 4 5 6 6 6 6 4 5 5 5 5 6 5 5 5 5 4 4 4 3 4 6 9 10 10 13 16 15 14 13 13 13 13 12 11 11 10 10 10 11 11 10 11 11 10 8 8 9 8
4 3 2 1 0 0 2 1 3 2 3 3 4 4 5 6 7 8 5 2 2 3 6 8 6 3 2 1 4 3 4 5 6 8 5 5 6 6 7 6 7 6 6 6 6 6 5 5 5 5 5 5 6 5 4 5 5 6 8 9 10 12 14 16 17 15 14 14 14 14 13 12 11 11 12 11 11 11 12 11 10 10 9 9 9
5 4 4 4 2 1 1 0 1 1 3 4 4 5 5 4 5 6 5 4 3 5 6 8 5 8 3 7 3 2 6 8 9 5 7 8 7 8 5 7 6 5 4 7 7 6 7 5 6 6 6 6 6 5 6 5 7 8 8 7 8 11 15 16 17 17 16 15 15 15 14 13 12 12 12 12 12 12 11 10 10 10 10 10 10
8 7 6 5 3 3 1 0 0 1 1 2 4 6 6 6 7 7 7 8 7 4 5 6 7 8 7 3 1 2 6 4 1 6 2 5 8 7 6 7 7 7 6 7 6 7 7 6 6 6 7 6 6 6 6 6 6 6 7 9 9 10 12 16 17 17 18 17 16 15 15 14 13 13 13 12 12 11 11 11 11 11 10 10 10
5 6 6 6 6 4 3 1 0 1 2 3 3 3 3 4 5 6 7 7 7 6 5 5 8 8 5 3 4 4 1 2 1 7 1 4 4 4 6 7 5 6 7 7 8 8 6 8 7 8 7 7 6 6 6 6 6 6 7 8 11 11 12 14 18 18 19 19 17 16 17 16 14 14 14 13 12 12 12 11 11 11 11 10 10
7 6 6 5 5 4 3 2 1 1 2 2 4 4 4 5 4 4 6 6 4 6 8 6 4 7 7 8 3 1 2 1 4 1 6 1 3 6 7 4 5 5 7 9 8 6 7 7 8 8 7 7 7 7 6 6 7 7 8 10 13 15 14 15 14 18 21 21 19 18 18 17 16 15 14 13 12 13 12 13 13 12 11 11 10
11 11 10 8 7 7 4 3 2 2 1 2 4 4 3 3 4 5 5 4 5 7 7 6 7 5 8 11 10 5 3 1 2 3 3 5 4 1 3 5 5 6 8 9 8 9 9 8 8 7 7 7 8 7 7 7 7 7 7 12 14 16 16 15 14 15 19 22 20 19 19 18 17 16 15 13 13 13 13 14 14 13 11 11 12
11 11 11 11 11 9 8 6 5 4 1 3 3 3 4 4 4 4 5 6 6 7 7 6 6 8 4 7 8 10 7 6 2 2 4 3 6 3 5 1 3 7 9 9 8 9 10 9 8 8 7 8 8 8 7 7 7 7 8 12 15 17 17 17 14 15 17 16 17 20 20 19 18 17 16 15 14 14 14 15 14 14 13 13 12
10 10 11 11 11 10 9 9 7 5 3 3 3 4 4 4 4 5 5 7 5 6 8 7 7 7 8 6 6 5 6 7 6 5 4 5 11 6 5 6 7 8 10 10 12 10 7 7 7 8 9 8 8 8 7 8 8 7 9 13 15 17 17 16 13 10 14 13 14 17 20 19 19 19 17 16 15 15 15 16 15 14 14 14 13
9 9 10 11 11 10 10 9 8 6 6 4 4 4 5 4 5 4 4 5 6 6 7 7 7 7 7 7 9 8 9 8 8 7 9 9 6 8 5 6 9 7 6 8 9 8 7 7 8 9 10 9 8 7 8 9 9 9 11 13 16 16 17 17 13 11 11 12 14 15 18 18 18 18 18 17 17 16 16 17 16 15 15 15 14
9 9 10 11 10 9 9 10 10 9 9 8 6 4 4 4 4 5 5 5 5 5 5 7 7 7 8 6 8 7 8 8 6 7 8 8 8 12 8 3 5 7 6 3 3 8 9 10 10 10 10 8 8 8 8 8 9 14 12 14 15 18 19 19 18 14 12 13 15 17 17 17 17 16 16 17 17 17 16 17 17 17 16 16 15
10 10 11 12 9 10 10 9 9 9 8 8 8 7 6 5 4 5 5 5 6 6 6 6 7 8 7 8 8 8 9 7 6 7 6 6 8 10 6 3 10 5 4 3 5 3 8 9 10 10 9 9 8 8 9 8 9 12 15 11 17 17 19 19 19 18 16 15 16 16 17 17 16 15 17 17 18 18 18 17 17 17 17 16 16
9 9 8 9 9 9 8 9 8 8 8 8 7 7 7 7 5 6 5 6 5 6 7 6 7 7 6 6 7 7 8 6 7 6 7 6 8 9 9 6 4 8 3 2 1 1 4 8 10 10 8 9 10 9 8 10 9 14 17 12 12 17 18 19 20 20 20 19 19 17 17 16 16 15 16 18 19 19 18 18 18 18 17 17 17
8 8 9 9 8 9 9 9 10 9 9 9 9 8 7 7 6 6 6 5 5 5 6 6 8 7 7 7 7 7 6 6 6 7 7 9 9 8 7 12 10 7 7 4 3 8 7 3 8 8 10 9 9 9 10 9 12 14 15 11 9 17 18 21 22 23 22 21 21 20 19 17 17 17 17 18 18 19 18 19 19 19 18 18 17
7 8 9 9 9 10 9 9 9 9 9 8 8 8 8 8 7 6 7 5 5 6 6 5 7 7 7 6 6 7 6 6 6 7 7 7 8 7 6 9 11 14 7 9 6 7 5 8 2 8 9 10 10 10 12 12 9 12 15 10 10 11 18 22 23 23 23 22 21 21 20 19 19 19 19 18 18 18 18 19 20 19 17 16 17
7 6 8 8 8 9 9 10 10 10 10 9 8 7 7 7 7 7 7 7 5 6 6 6 6 6 6 6 7 6 7 5 6 6 7 6 6 7 8 10 9 11 12 11 11 7 4 9 6 5 11 11 11 10 10 10 12 13 10 11 11 10 13 21 23 23 23 23 22 22 22 21 20 20 20 19 19 19 19 19 19 18 18 19 9
6 6 8 9 9 9 8 8 8 8 9 9 9 9 8 8 7 7 6 6 6 6 6 5 6 6 6 6 5 6 6 6 6 6 6 7 7 7 7 8 8 12 12 11 14 6 5 4 8 5 5 10 10 9 9 11 14 14 10 11 11 11 15 20 22 24 24 24 23 22 23 22 21 21 21 20 20 21 21 20 20 20 19 20 12
6 6 7 7 7 8 8 9 9 9 8 8 8 8 8 8 8 8 8 6 6 7 7 6 6 5 5 6 6 6 5 7 6 6 6 6 7 7 7 6 8 11 11 10 13 7 6 7 8 8 7 8 9 9 8 9 11 14 12 11 12 13 17 15 20 21 24 24 22 23 23 24 23 22 22 21 21 22 21 21 22 21 20 22 14
4 4 5 5 5 6 6 6 7 7 7 7 6 6 7 6 7 7 7 6 7 7 7 6 6 6 6 7 7 6 6 6 6 6 6 6 6 7 7 7 8 8 8 10 13 16 4 7 6 8 10 8 7 9 9 8 9 14 10 11 12 14 11 9 18 21 22 22 23 23 23 23 23 23 23 22 22 22 22 22 22 22 22 23 19
6 6 5 5 5 5 5 5 5 5 5 7 6 5 6 7 7 6 6 6 6 7 7 8 6 5 7 7 8 7 6 6 7 6 6 6 6 6 6 7 8 7 7 9 12 15 7 4 4 6 4 4 5 7 9 9 7 8 11 11 10 9 9 10 11 19 22 22 23 24 24 24 24 23 23 23 23 23 22 23 22 23 23 22 21
5 7 8 8 8 9 8 8 7 6 6 5 6 5 6 6 7 6 7 7 7 7 5 7 8 6 5 7 9 8 7 7 7 7 7 7 6 6 7 7 8 8 7 8 11 11 15 4 5 3 3 5 8 4 10 10 10 9 11 11 9 10 10 10 10 11 21 23 23 23 24 25 25 24 24 24 23 23 23 23 23 23 23 22 21
4 4 5 6 7 7 7 8 8 9 8 8 7 6 7 6 7 7 7 6 7 7 7 7 7 6 7 6 8 8 7 7 8 7 6 7 7 7 9 6 8 8 7 9 9 12 13 10 6 7 5 4 9 8 9 10 10 9 11 10 11 9 10 10 10 9 14 21 23 24 24 24 24 25 24 25 24 24 24 24 24 24 24 24 23
5 5 4 5 5 7 8 8 8 8 9 8 7 6 7 8 8 9 8 7 7 7 7 7 7 6 7 7 7 7 7 8 9 8 7 7 7 8 8 7 7 9 7 7 10 11 10 12 6 8 5 7 8 6 6 7 8 7 8 8 6 8 7 7 9 9 10 19 22 23 24 24 25 26 25 25 25 25 25 25 24 25 25 25 24
5 6 7 5 6 6 7 8 9 10 10 10 11 11 9 7 8 9 9 8 7 8 7 7 7 7 7 7 8 6 6 8 9 8 8 8 8 8 9 8 8 8 6 7 9 8 11 13 10 4 6 6 5 4 6 7 6 7 5 8 9 9 7 6 5 6 8 16 20 22 22 23 24 27 28 26 25 26 25 25 26 25 26 26 25
6 5 7 7 6 8 8 8 8 9 10 10 10 11 11 11 10 9 8 8 8 8 8 8 8 7 7 8 7 6 6 7 9 8 8 9 9 9 10 9 8 7 8 8 8 9 10 12 10 9 5 7 5 6 7 8 9 8 7 7 5 5 6 6 8 7 7 8 9 12 17 20 22 25 29 28 26 27 27 27 26 26 25 24 23
5 6 5 7 6 7 8 8 8 9 9 9 10 10 10 10 10 11 11 11 10 8 8 8 8 8 8 8 8 7 8 8 9 9 9 9 9 10 10 10 9 8 9 9 8 9 10 11 10 9 9 7 7 9 6 8 9 10 11 8 9 7 6 10 11 8 8 9 10 13 12 11 12 14 22 28 28 27 28 26 26 26 24 23 23
6 6 7 8 8 6 7 7 8 7 8 9 9 8 8 9 10 11 11 11 12 11 11 10 8 8 9 9 9 9 9 9 9 9 8 9 8 9 9 8 8 9 9 9 9 9 10 10 11 10 7 7 6 5 1 4 6 8 8 8 11 10 11 11 12 12 9 8 9 9 10 11 11 14 17 23 30 29 28 25 26 24 24 23 24
9 9 9 10 10 11 9 9 9 8 9 10 8 7 8 10 10 10 11 11 12 12 12 12 11 10 9 9 9 10 11 14 17 15 13 11 8 9 10 8 8 9 9 9 9 9 9 10 11 9 8 7 8 8 8 8 12 13 6 7 11 10 6 7 9 9 8 9 9 7 9 10 10 11 12 12 15 22 21 23 18 24 23 24 25
10 10 10 10 10 11 13 13 12 11 10 9 10 17 17 12 11 10 10 10 11 11 12 13 13 12 12 11 10 15 17 18 19 19 17 18 19 14 11 9 9 9 9 10 10 9 9 11 11 10 9 10 10 9 10 11 8 4 6 10 12 7 5 9 9 9 9 8 7 10 11 8 11 12 11 13 12 13 12 14 14 15 21 26 26
13 13 12 13 13 12 12 13 14 14 12 11 21 23 23 25 16 11 11 11 11 12 12 12 13 14 13 12 11 13 14 15 15 18 19 19 19 21 22 20 16 12 10 11 11 10 10 11 11 10 11 13 13 8 10 9 7 10 11 9 10 8 10 11 14 6 8 10 10 8 10 9 11 13 13 14 13 11 12 13 20 22 23 26 27
13 12 14 14 14 14 13 13 14 14 14 19 27 26 26 25 22 15 11 11 11 12 12 13 13 13 13 13 12 11 11 12 12 11 14 17 20 21 22 22 21 22 20 15 13 11 11 11 12 12 11 13 12 8 7 8 8 8 9 9 10 12 12 12 12 12 5 13 9 10 14 8 10 13 13 13 12 12 13 14 21 24 25 26 27
11 13 14 14 15 14 14 15 15 16 15 22 27 28 27 27 27 22 12 12 12 12 13 13 13 14 13 13 13 12 11 17 15 12 12 12 15 19 21 23 23 22 22 24 23 18 12 13 12 14 13 12 13 11 9 8 7 12 10 11 11 11 11 12 13 10 5 12 10 11 14 11 11 13 14 14 10 10 12 17 24 26 27 28 28
11 12 12 13 14 14 14 15 15 16 17 20 27 28 28 28 28 24 14 13 13 13 13 13 12 13 13 12 12 13 12 13 12 13 13 13 13 12 12 12 12 15 18 23 24 25 21 15 14 16 16 13 14 11 7 7 10 11 10 12 11 12 11 15 12 6 6 12 15 11 10 9 11 12 14 13 10 11 12 16 25 27 27 28 27
12 12 12 12 12 12 12 13 13 17 16 26 28 29 28 28 28 25 13 12 11 12 12 13 13 13 13 13 13 14 14 14 12 15 14 14 13 14 13 14 13 13 13 13 14 13 13 14 15 17 18 14 12 13 9 8 11 11 11 12 12 12 12 11 9 8 7 9 10 9 13 11 7 9 14 12 9 11 11 13 23 26 27 27 29
8 9 10 10 11 13 11 12 13 17 17 26 27 28 28 27 30 16 12 12 12 14 13 13 11 10 11 12 13 12 13 15 19 29 26 19 16 16 17 16 15 14 14 12 17 16 15 14 13 15 15 15 14 13 11 9 8 8 7 7 6 7 8 9 12 9 10 7 12 12 10 9 7 13 13 7 8 11 10 9 18 25 27 30 28
10 10 11 10 11 11 15 14 13 16 16 20 25 27 27 28 23 14 15 12 14 14 14 14 12 14 14 12 13 13 15 15 22 28 29 26 18 18 18 17 16 15 15 14 17 22 24 24 23 22 22 22 21 20 20 22 16 8 6 7 11 8 10 11 12 10 11 8 9 12 10 10 6 10 8 5 10 11 10 11 10 19 25 27 30
11 10 10 12 10 10 12 13 12 14 14 18 26 26 26 26 22 15 12 12 13 14 13 15 12 12 15 28 25 18 17 18 26 30 30 25 19 18 18 18 19 18 17 14 12 12 18 22 24 26 26 26 25 24 22 22 22 16 10 13 11 9 11 12 14 11 7 8 10 13 9 13 4 4 4 1 3 5 8 8 8 10 20 22 28
10 9 10 11 11 9 9 12 19 19 15 16 23 25 26 25 20 13 13 10 13 14 15 15 11 10 13 15 24 24 22 23 32 30 31 25 18 18 18 17 19 19 18 15 15 14 12 11 12 14 16 19 18 16 15 23 22 19 14 14 10 11 11 13 13 8 9 11 11 13 11 11 8 4 6 3 5 5 4 6 8 9 10 11 13
Wind_Direction
182 186 164 183 177 177 178 185 180 177 165 180 170 169 172 167 166 168 174 181 197 223 213 219 209 194 176 189 188 178 175 168 170 177 191 205 220 254 254 273 281 263 251 220 201 204 199 203 197 193 195 179 164 211 206 172 192 206 201 165 186 181 165 157 208 209 188 176 157 147 147 169 161 153 133 146 154 145 109 98 74 60 68 59 60
184 176 176 185 180 181 184 186 184 176 176 181 184 170 175 172 169 171 177 186 193 219 192 199 202 190 182 179 184 185 179 171 177 181 186 194 213 240 224 243 281 235 223 235 214 210 208 203 210 217 199 176 178 211 223 186 199 178 227 171 177 187 189 163 193 214 206 205 170 157 164 174 152 155 156 150 156 163 148 163 107 53 62 58 55
177 177 184 180 183 183 193 183 186 189 184 181 173 180 173 180 178 176 181 186 203 201 195 186 191 191 191 173 190 182 184 184 175 179 180 195 200 207 215 212 216 33 228 221 222 208 214 214 214 218 196 192 194 199 233 191 189 189 210 235 173 194 192 184 195 194 208 196 181 157 160 174 166 156 149 147 166 156 160 137 97 107 47 81 52
177 178 180 180 184 188 187 185 197 187 187 176 175 174 174 177 173 173 175 177 197 206 219 185 194 201 186 192 179 188 189 182 179 185 191 192 198 202 194 200 157 126 39 214 199 205 211 225 219 212 206 210 193 204 213 221 189 206 197 228 164 200 193 192 210 190 204 204 178 164 179 174 177 172 162 165 164 164 156 154 149 128 100 92 57
187 181 181 181 181 184 187 197 192 184 184 175 165 162 156 162 177 158 164 170 186 211 214 208 191 210 197 201 183 201 198 179 187 185 192 193 199 195 196 212 351 37 39 25 122 164 175 189 219 210 202 212 215 208 212 214 197 220 204 211 213 189 188 203 207 199 199 202 188 175 182 192 184 187 172 163 172 170 172 164 156 145 146 132 134
181 185 181 180 181 187 187 191 189 184 171 160 171 170 167 166 180 164 186 181 197 202 191 207 219 204 205 198 191 202 191 194 190 194 186 193 194 182 191 182 21 7 7 17 13 86 153 134 146 204 205 211 236 202 208 229 214 235 195 197 216 204 203 200 202 204 202 196 197 196 195 193 186 197 191 164 162 172 177 165 166 157 150 140 130
188 181 186 182 181 187 190 192 179 172 175 178 168 171 167 181 165 184 187 203 201 200 200 204 194 204 206 189 198 201 197 205 198 195 192 194 179 193 187 187 191 228 3 1 4 12 40 120 137 152 198 210 224 201 214 215 216 201 189 206 214 234 214 197 203 205 207 203 202 199 203 196 196 187 193 174 175 184 182 174 160 153 154 144 152
188 184 183 187 186 189 195 179 175 170 178 173 166 176 178 176 185 172 176 218 204 222 213 206 204 210 211 195 201 186 197 207 207 208 208 174 189 192 200 198 193 188 199 270 346 346 7 22 98 102 84 203 225 214 215 214 214 209 203 201 208 209 197 198 210 199 200 206 204 209 204 200 198 193 196 195 190 191 187 177 192 185 204 199 180
186 185 182 187 191 193 188 182 170 172 174 178 184 179 172 177 182 193 185 188 200 220 232 225 211 216 210 205 205 189 194 199 204 207 184 183 192 197 199 204 198 194 184 195 228 317 346 359 8 16 3 352 282 235 227 221 213 209 205 211 215 212 207 209 204 211 198 201 200 219 214 204 202 202 197 197 198 203 196 203 218 218 215 219 197
182 181 187 189 191 189 178 175 170 171 174 175 194 173 175 172 186 196 188 173 193 200 214 220 237 231 229 221 221 202 208 207 215 212 193 199 194 196 201 194 190 198 190 193 199 207 273 329 350 353 342 330 307 304 292 258 219 212 214 217 222 211 212 208 203 208 203 197 205 209 218 210 207 206 205 205 208 206 211 213 218 218 210 198 198
176 175 178 179 182 182 173 177 173 172 170 179 175 168 171 182 186 193 196 195 189 198 188 169 209 272 263 259 265 241 246 238 231 225 220 215 204 206 186 199 193 195 192 192 197 194 199 215 248 291 300 311 304 269 262 275 265 224 222 224 224 213 219 205 208 207 201 201 209 209 212 215 211 212 211 212 212 214 212 211 211 210 208 204 200
167 172 173 175 179 183 183 172 176 167 168 172 178 175 186 188 202 184 191 200 140 157 131 134 76 75 300 301 294 297 269 254 251 236 228 222 221 192 198 202 194 191 193 197 191 197 196 202 207 222 241 270 294 325 318 320 318 299 247 236 229 221 221 221 219 210 207 210 210 210 213 214 213 214 218 219 220 216 214 210 208 205 204 206 203
147 158 174 170 189 177 168 169 169 179 183 193 190 194 195 191 186 178 177 183 204 145 157 136 135 204 345 324 304 295 279 273 249 245 238 237 233 212 221 196 199 191 202 191 192 196 202 206 214 217 223 226 252 271 286 289 309 289 279 267 253 232 228 229 229 225 226 221 216 213 213 217 218 218 221 222 221 218 216 216 210 202 204 204 204
43 28 82 155 164 170 187 189 179 194 203 199 192 195 174 174 149 167 207 184 204 177 171 129 184 191 184 281 306 298 278 289 264 249 234 234 224 224 218 211 208 206 198 189 201 201 203 207 210 216 223 221 227 231 247 258 276 283 280 271 263 251 236 232 227 224 229 231 226 223 219 218 221 224 222 224 225 222 220 218 210 202 205 202 201
39 49 61 43 41 143 250 202 201 203 179 174 167 184 193 189 182 184 193 236 204 176 174 191 176 133 114 77 274 269 299 270 258 243 231 225 223 222 218 218 216 202 195 194 206 209 210 207 210 213 221 223 222 222 223 228 226 247 266 278 290 281 272 247 230 225 228 231 232 228 227 224 222 222 228 225 224 223 222 220 214 210 207 205 204
32 39 35 45 46 31 34 24 290 226 223 209 193 206 192 194 197 214 174 182 211 222 196 201 151 137 241 211 224 157 297 251 234 245 197 219 217 225 215 220 219 215 197 206 208 208 213 200 210 210 216 219 220 219 221 223 224 232 240 256 270 274 269 276 257 223 225 226 231 232 230 228 221 223 227 226 225 224 226 223 221 217 214 211 208
11 15 23 24 32 45 64 89 222 309 306 273 236 225 211 207 201 200 194 200 213 213 217 206 212 214 170 95 7 274 230 258 358 277 227 219 232 227 221 220 216 212 208 224 214 213 207 206 211 213 217 216 221 220 220 223 225 224 227 234 242 253 266 266 271 243 223 224 223 230 233 228 223 225 225 228 227 227 227 226 223 223 220 217 214
20 13 12 11 13 22 41 59 83 171 188 227 254 272 253 232 215 212 215 226 219 198 224 227 225 234 233 210 147 178 221 264 110 275 325 242 254 232 229 227 218 214 221 224 218 220 210 214 205 213 212 215 217 218 217 221 220 222 223 225 225 235 246 257 260 265 240 223 220 223 228 228 224 221 224 225 226 230 231 228 227 223 222 220 218
357 11 10 12 14 17 23 10 334 239 230 235 251 241 237 228 222 219 227 223 220 225 216 218 224 253 253 255 258 166 153 123 239 350 313 314 245 233 245 243 236 233 230 230 227 222 224 219 216 214 212 213 213 213 215 222 221 221 222 223 228 231 237 243 257 262 266 235 216 219 224 227 225 220 221 221 223 229 234 231 226 223 223 222 220
2 355 358 357 358 355 11 14 357 325 300 241 249 255 249 242 216 220 229 228 216 229 231 207 206 226 215 242 250 224 172 154 165 209 230 281 302 300 273 241 242 240 237 238 228 222 221 220 221 215 216 217 215 212 210 211 215 220 225 226 228 232 234 239 246 256 265 252 223 215 223 227 226 224 217 215 219 223 229 230 227 224 222 222 219
12 9 8 4 356 350 345 346 346 331 326 299 288 290 269 261 247 230 222 225 214 220 228 226 216 235 206 241 241 249 247 236 204 162 234 276 272 221 260 287 235 251 246 235 236 226 221 218 214 215 215 220 215 215 212 210 212 213 218 223 226 230 232 234 240 250 249 233 219 218 221 225 227 225 223 217 217 224 227 226 225 223 221 222 221
5 10 10 5 360 355 349 340 337 339 346 307 310 309 295 281 264 245 237 237 230 223 225 229 222 228 222 229 223 239 256 271 254 251 261 202 254 260 222 222 237 241 229 230 229 227 225 222 217 219 221 221 215 214 210 215 214 211 216 216 223 227 229 229 227 238 229 213 213 220 222 222 226 229 228 227 223 221 224 228 223 221 221 220 219
7 6 9 4 358 358 356 344 337 335 333 331 309 297 296 296 295 291 266 246 243 237 236 237 236 233 229 223 236 222 231 229 233 223 233 251 266 260 257 225 228 257 252 235 231 225 218 215 221 222 221 221 217 210 212 217 215 216 209 215 220 223 225 223 212 212 215 207 208 212 219 222 228 231 229 226 227 222 222 226 224 222 221 221 219
12 8 6 358 359 353 354 357 354 348 341 337 326 316 305 310 304 298 288 277 273 262 252 243 237 240 240 233 237 235 238 237 226 213 219 242 241 261 256 269 280 238 269 310 256 222 215 217 222 223 222 221 217 212 216 214 218 216 213 218 219 221 223 221 212 202 200 199 201 206 211 216 221 225 227 228 227 228 222 224 225 221 221 222 220
7 5 359 355 354 357 355 355 353 351 344 347 337 335 333 321 304 299 293 287 272 266 259 250 240 236 240 239 238 234 239 235 226 227 225 231 235 259 255 178 256 280 273 242 259 240 222 227 222 225 222 218 218 213 215 213 216 215 211 218 219 220 223 224 218 206 199 197 199 203 207 212 217 222 227 229 228 229 226 225 226 223 222 221 221
1 5 354 352 356 352 350 350 352 350 352 348 346 339 338 332 321 312 299 287 290 277 269 271 269 260 252 250 244 240 242 231 233 223 227 221 239 236 260 255 211 260 289 274 282 242 264 226 222 221 218 218 219 214 211 215 217 215 210 211 217 219 220 224 223 214 204 201 201 203 207 210 214 218 224 228 227 227 229 228 227 224 222 222 221
2 349 356 1 359 357 355 354 353 350 349 350 347 344 342 338 331 317 310 301 298 289 280 272 272 270 266 256 258 253 246 236 229 233 221 227 235 232 222 262 268 244 260 245 273 225 244 281 222 225 220 220 219 215 215 214 216 211 208 210 217 220 219 220 223 221 216 208 207 207 209 209 211 217 216 222 223 224 228 232 230 224 220 221 221
358 358 355 359 359 357 358 358 352 352 349 347 345 343 340 339 329 330 320 313 315 305 286 285 277 271 267 273 273 266 261 250 240 239 234 229 228 233 219 238 253 272 251 263 240 258 206 238 285 222 217 220 221 217 219 216 218 207 204 207 213 218 219 218 220 222 221 216 212 210 211 211 209 214 215 215 221 225 228 232 233 228 221 219 221
2 1 355 357 359 358 356 353 354 351 349 349 345 342 341 337 333 328 321 317 321 303 297 288 275 275 277 268 261 269 268 260 254 256 251 248 234 229 219 231 234 250 264 265 257 236 254 208 228 242 206 217 220 218 216 215 217 206 202 208 212 214 215 216 217 220 221 220 217 214 213 210 210 211 215 217 219 224 227 228 236 243 223 219 201
6 357 358 357 356 359 355 351 350 349 348 344 346 344 345 341 335 328 315 316 311 305 293 282 281 277 276 281 272 270 269 271 256 245 247 244 242 231 228 231 222 240 251 257 267 187 245 238 215 240 213 220 219 221 211 218 217 204 207 209 212 216 211 212 215 217 219 221 220 216 212 210 209 209 213 216 219 222 224 225 226 234 225 209 175
356 354 355 354 354 350 354 347 347 347 343 345 343 342 343 339 337 330 325 328 320 308 301 303 292 288 283 284 282 273 269 268 266 256 249 251 248 240 242 228 229 234 244 250 269 249 171 226 233 232 227 222 215 220 219 223 219 207 208 212 216 217 211 213 214 216 218 220 220 216 214 211 209 208 211 214 216 220 222 224 224 224 225 216 187
331 332 336 335 334 334 335 334 333 336 337 333 336 331 332 331 326 328 320 326 323 317 311 308 304 303 297 290 282 278 277 274 274 267 258 246 244 249 243 234 238 231 234 245 249 261 176 217 217 229 225 225 209 213 220 225 224 211 212 215 219 218 212 218 219 218 219 220 220 217 214 212 209 208 210 212 215 219 221 223 225 223 221 223 209
347 340 336 327 316 312 310 311 314 316 321 322 328 330 330 327 323 315 316 322 322 316 316 313 310 304 300 295 291 282 278 275 271 271 271 258 250 248 246 245 247 233 221 236 250 265 260 235 218 229 241 210 247 209 220 222 218 218 216 221 215 209 210 213 219 221 220 220 220 218 215 212 210 208 208 211 214 217 220 222 224 224 221 224 221
345 336 333 335 334 331 329 320 314 306 302 305 311 322 319 320 317 319 320 322 319 313 312 308 311 310 301 298 296 294 287 278 279 275 268 269 259 255 247 237 245 245 221 233 252 259 267 232 263 238 254 192 235 193 210 214 221 212 217 218 214 210 211 211 212 218 220 220 220 218 216 214 211 210 208 209 211 214 217 219 221 222 222 220 219
311 311 312 317 319 318 315 313 315 316 312 309 307 308 305 303 301 301 303 308 309 309 312 303 302 303 306 299 296 296 296 291 283 274 271 267 261 256 257 237 246 247 233 228 249 259 263 259 214 241 221 216 212 220 210 223 224 214 219 218 213 214 216 212 213 217 219 220 219 219 219 217 214 212 210 209 209 211 213 216 218 220 221 220 218
297 293 295 294 296 303 304 306 308 307 307 302 299 291 289 294 295 294 295 295 292 290 289 291 293 297 293 297 291 291 295 294 288 285 276 269 266 264 262 254 244 251 238 235 233 252 264 270 229 218 216 216 239 230 215 223 221 222 220 230 231 229 226 222 221 223 220 221 222 222 222 221 218 219 214 211 209 210 211 214 216 218 220 220 218
293 298 297 294 292 291 293 296 300 303 303 305 306 305 300 289 283 285 286 286 283 281 277 277 281 280 281 275 279 283 282 285 288 287 282 275 270 267 264 262 254 250 240 234 243 240 255 257 261 220 226 227 242 219 204 202 223 227 222 220 219 223 224 225 230 231 229 226 227 226 225 224 221 221 221 213 210 210 210 212 214 216 217 218 218
296 291 288 293 287 289 286 282 283 286 288 290 290 289 293 299 299 291 280 271 271 272 274 272 270 269 271 273 272 270 269 270 275 277 279 278 276 271 269 267 260 255 252 247 239 247 248 257 256 259 231 227 241 229 201 199 203 215 230 232 227 217 210 225 226 223 220 220 219 227 228 227 225 222 224 220 213 212 211 211 211 213 215 216 216
272 279 276 277 278 270 275 275 273 275 277 277 280 284 288 290 290 291 295 294 289 283 271 266 264 264 263 265 268 265 261 256 261 265 269 273 271 268 266 268 265 262 259 254 248 247 249 257 259 245 247 227 216 237 215 198 215 210 211 206 227 216 207 215 228 222 219 224 229 230 230 228 225 223 224 223 219 216 216 212 212 211 212 211 211
298 295 296 291 286 273 269 270 268 266 268 272 272 272 274 279 287 289 290 292 292 292 291 285 275 263 258 257 259 260 257 257 255 257 250 257 263 268 266 264 264 260 260 260 257 252 255 257 255 257 234 232 231 243 97 169 224 243 222 203 219 213 213 217 220 219 214 214 221 221 230 230 227 226 227 228 227 224 220 216 214 211 210 208 208
317 313 309 307 307 305 297 287 286 283 280 279 279 279 284 285 280 280 283 285 288 291 290 288 284 279 271 261 257 256 256 258 257 255 254 248 249 260 261 258 259 259 259 261 258 256 258 258 262 255 248 236 229 214 206 207 208 222 188 190 230 228 214 231 239 230 216 210 220 213 220 215 221 221 220 224 226 224 222 216 214 213 209 208 209
319 316 315 313 309 307 308 308 305 301 295 292 287 293 297 295 294 293 291 289 287 285 285 287 285 280 276 274 268 259 258 259 261 263 260 257 254 247 250 251 249 254 254 258 257 254 256 257 255 256 251 247 234 218 222 223 219 199 179 201 223 215 173 230 244 225 210 205 206 218 223 207 213 225 220 227 226 217 222 215 213 209 210 210 210
323 322 320 316 313 311 311 309 308 306 303 300 301 305 307 307 305 301 297 293 289 286 282 279 281 284 283 277 274 272 269 264 261 259 259 259 260 260 256 249 241 239 250 250 251 249 251 252 256 253 250 253 247 217 222 223 202 205 213 205 215 203 206 212 234 223 185 186 213 225 237 208 205 222 221 223 219 213 219 218 215 209 209 210 210
320 319 315 313 312 313 311 310 307 305 303 304 307 311 312 312 311 307 301 295 291 286 285 282 281 280 281 281 279 276 271 267 265 261 258 256 257 259 261 260 255 247 239 237 245 251 242 248 252 250 249 249 255 234 223 214 207 211 219 212 211 210 215 221 230 232 174 177 190 212 239 205 201 224 229 225 217 212 216 215 214 211 209 209 211
316 313 313 315 311 312 313 311 309 306 303 305 309 312 312 313 312 311 304 298 293 289 286 284 283 282 281 280 280 275 273 272 270 267 268 265 257 255 257 262 262 257 252 246 241 241 244 246 249 253 242 249 253 245 225 214 190 215 206 216 215 220 222 229 231 225 139 176 184 217 233 217 187 218 228 227 215 212 218 215 215 214 212 210 210
312 309 308 308 308 310 312 312 308 305 301 305 309 311 311 311 310 309 303 298 291 286 285 283 281 281 280 282 283 282 279 277 273 272 271 268 270 267 263 259 257 258 257 254 252 247 242 242 243 250 249 236 246 249 232 190 201 216 211 220 215 219 219 230 234 218 166 180 189 200 240 224 194 210 228 230 204 215 218 215 216 216 215 213 210
314 311 312 312 310 312 312 310 307 303 302 308 311 311 310 310 308 307 299 294 288 283 280 278 278 277 278 278 278 279 282 281 279 279 276 273 270 268 267 263 258 255 252 250 248 247 244 240 240 245 252 248 243 247 235 203 216 218 214 215 215 216 224 237 248 223 209 195 192 185 234 231 172 204 230 221 200 218 220 214 218 219 219 217 215
301 303 301 303 306 312 314 313 309 303 305 311 313 312 311 310 308 306 303 297 292 286 282 280 276 275 276 276 278 279 282 283 284 285 284 283 278 272 266 264 263 259 255 244 242 239 241 240 240 242 246 248 240 240 236 217 223 228 228 233 226 218 222 231 237 224 226 188 194 198 232 238 160 201 232 199 192 221 215 209 218 219 220 221 219
305 306 304 306 313 313 311 310 307 303 303 312 313 312 313 312 310 304 299 292 290 289 287 289 287 284 280 277 280 281 279 276 280 281 281 281 279 276 271 267 263 261 260 257 250 247 245 241 240 239 243 246 244 240 240 235 232 211 207 212 220 203 215 228 238 229 228 183 201 208 225 241 186 206 221 172 197 216 212 210 211 217 219 220 221
303 303 305 304 302 303 302 301 302 299 300 308 310 310 310 309 306 302 297 292 286 285 282 280 275 275 278 282 282 282 282 282 284 282 281 282 281 279 275 269 267 262 260 258 258 252 245 246 246 245 245 246 246 242 239 237 234 225 199 223 218 204 219 220 235 227 228 202 203 194 210 235 190 185 189 254 214 237 217 210 199 209 218 222 222
291 297 298 297 297 294 288 291 300 301 298 304 308 308 306 305 304 297 294 289 289 291 292 290 285 282 285 287 288 286 285 284 284 282 280 278 275 274 274 271 266 261 259 261 258 258 254 250 249 248 250 249 247 242 238 240 238 232 221 225 220 212 216 226 232 235 240 232 210 173 204 230 209 194 170 124 235 257 216 202 197 201 206 212 218